Vertical_Velocity
1 2 -4 1 0 -4 0 1 -2 -3 -1 -0 -4 -3 -1 1 -2 -1 -1 1 -0 -3 -2 -1 0 -4 -5
3 1 -2 1 1 -3 1 -1 1 -2 -6 -3 -0 -2 0 3 -2 1 -3 2 -2 -1 -3 -7 -4 -0 -0
-1 -0 -3 -2 -2 -0 -3 0 2 -2 -3 -5 1 -2 -1 1 1 -4 -8 0 1 -3 -2 -1 -0 2 -2
2 1 -1 1 -2 -1 -4 -1 1 -3 3 -6 -2 -2 1 -4 1 0 0 3 -1 2 1 -2 0 -2 -3
3 0 -1 -3 -3 1 -0 1 -3 -4 -1 -2 -4 -1 -1 -2 0 -2 0 4 -0 -2 -2 -3 2 -2 -2
4 -4 4 -0 -1 1 -0 -3 -1 -6 -0 -2 -3 -7 -3 -3 -0 0 -0 3 -0 0 -1 -1 2 -1 -4
-2 -1 1 3 2 0 -1 1 -0 3 0 -14 8 -6 -4 -12 -1 -1 3 2 2 5 0 2 1 1 -3
0 -0 -1 -3 2 1 1 0 -3 3 2 -9 0 -4 -2 -9 0 -3 2 -0 4 2 -5 -6 -2 0 -2
-0 3 2 4 1 1 -3 -1 0 0 -6 -1 -3 -11 -7 -10 -5 4 -4 -0 1 3 -2 -4 2 -1 -1
4 1 1 -3 -0 1 0 0 2 2 -6 3 -3 -1 -9 -12 -25 -0 -10 0 -5 -5 -1 -5 -7 -4 -9
-1 -1 1 1 2 0 -2 -3 -4 1 1 -1 -6 -4 -2 0 -14 -5 -9 -10 -5 -6 -8 -7 -10 0 -9
-1 -2 -2 -1 0 1 -1 -1 3 0 4 1 -0 -4 -0 -7 -7 -4 -3 -3 -1 -1 -0 -1 -6 6 4
3 2 3 2 -1 -2 -0 1 0 -1 -6 3 3 -5 2 -1 5 -12 -12 -13 -5 0 -2 -3 -9 1 -14
-1 2 1 -0 -0 -0 -1 0 -3 -1 2 5 -0 -3 -4 6 1 -10 4 2 1 -3 1 5 -6 4 2
0 3 -1 2 3 4 -3 -1 -0 -3 -3 1 1 -2 -1 1 -11 5 1 -8 -1 1 1 -7 -5 3 -2
1 -2 -0 3 2 -4 -0 -1 -2 -2 -3 -1 -4 -6 -4 -0 2 -9 -5 0 -1 -1 3 -5 -7 12 1
-8 -1 -2 3 1 -3 -0 -3 -3 -3 -1 -2 -4 -3 -6 -6 -9 11 -8 1 -9 -5 3 2 -10 -11 -7
Height
1554 1553 1553 1555 1554 1556 1555 1555 1555 1554 1554 1551 1550 1549 1546 1541 1538 1533 1528 1522 1517 1513 1507 1501 1496 1491 1487
1549 1549 1550 1552 1551 1551 1551 1550 1550 1549 1549 1548 1546 1544 1542 1537 1533 1529 1523 1518 1513 1507 1501 1496 1490 1484 1479
1544 1544 1545 1546 1546 1546 1546 1546 1545 1544 1544 1542 1541 1540 1538 1534 1528 1524 1518 1514 1508 1501 1495 1490 1483 1478 1471
1538 1538 1539 1541 1541 1542 1541 1542 1541 1539 1538 1536 1536 1535 1533 1530 1525 1518 1512 1507 1502 1496 1489 1483 1476 1470 1463
1533 1533 1533 1535 1536 1537 1536 1535 1535 1533 1533 1529 1529 1527 1528 1525 1520 1514 1507 1502 1495 1489 1482 1476 1468 1460 1453
1527 1527 1528 1530 1532 1532 1530 1530 1529 1527 1524 1524 1520 1520 1520 1519 1515 1507 1501 1496 1490 1482 1475 1468 1461 1453 1446
1520 1523 1524 1523 1526 1526 1525 1524 1523 1521 1515 1516 1514 1510 1510 1513 1509 1502 1496 1491 1483 1476 1469 1462 1454 1445 1438
1513 1516 1517 1517 1520 1520 1520 1519 1519 1517 1511 1506 1508 1503 1501 1505 1501 1496 1492 1485 1478 1470 1461 1453 1446 1437 1430
1505 1507 1508 1510 1512 1514 1515 1515 1512 1509 1506 1502 1501 1493 1493 1493 1495 1488 1483 1478 1471 1463 1454 1446 1439 1428 1419
1496 1498 1501 1503 1505 1509 1508 1510 1509 1504 1502 1500 1497 1491 1481 1477 1485 1482 1476 1472 1462 1456 1449 1441 1432 1420 1410
1491 1493 1495 1497 1499 1501 1501 1504 1503 1504 1497 1495 1492 1490 1487 1473 1468 1473 1469 1463 1456 1448 1440 1432 1426 1419 1402
1483 1485 1490 1493 1495 1497 1498 1499 1498 1497 1495 1491 1487 1486 1481 1472 1464 1461 1461 1456 1448 1440 1430 1424 1417 1411 1403
1480 1480 1483 1487 1490 1493 1493 1493 1495 1493 1491 1490 1485 1482 1481 1472 1461 1455 1449 1443 1441 1434 1424 1416 1410 1402 1387
1474 1477 1479 1483 1485 1486 1488 1489 1491 1489 1487 1485 1481 1478 1477 1470 1461 1454 1451 1442 1432 1425 1417 1409 1404 1398 1386
1473 1474 1477 1480 1483 1481 1483 1482 1484 1482 1484 1482 1477 1475 1473 1466 1458 1455 1445 1438 1431 1421 1411 1401 1397 1391 1381
1470 1473 1478 1478 1477 1479 1480 1480 1480 1479 1478 1476 1474 1469 1466 1462 1454 1449 1444 1434 1427 1418 1408 1395 1383 1385 1377
1464 1469 1476 1478 1475 1475 1476 1477 1476 1474 1474 1473 1470 1466 1461 1457 1454 1449 1441 1433 1421 1413 1405 1396 1384 1376 1368